Regional Weather Roundup
Issued by NWS Goodland, KS

Home | Current Version | Previous Version | Graphics & Text | Print | Product List | Glossary On
Versions: 1 2 3 4 5 6 7 8 9 10 11 12 13 14 15 16 17 18 19 20 21 22 23 24 25 26 27 28 29 30 31 32 33 34 35 36 37 38 39 40 41 42 43 44 45 46 47 48 49 50
000
ASUS43 KGLD 251808
RWRGLD

GOODLAND FORECAST AREA HOURLY WEATHER ROUNDUP
NATIONAL WEATHER SERVICE GOODLAND KS
1200 PM MDT FRI JUL 25 2014

...OFFICIAL OBSERVATIONS...

CITY           SKY/WX    TMP DP  RH WIND       PRES   REMARKS
GOODLAND KS    MOSUNNY   91  59  33 N13       29.97R
HILL CITY KS   SUNNY     99  62  29 VRB3      29.81S HX 100
IMPERIAL NEB   SUNNY     86  61  42 N13       29.96R
MCCOOK NEB     MOSUNNY   90  64  42 N12       29.88S
AKRON CO       MOSUNNY   89  54  30 N8        30.06S
BURLINGTON CO  MOSUNNY   91  56  30 NE15G21   30.01F
LIMON CO       MOSUNNY   91  44  19 N12G22    30.11S
$$

...UNOFFICIAL OBSERVATIONS...

CITY           SKY/WX    TMP DP  RH WIND       PRES   REMARKS
COLBY KS       SUNNY     91  64  40 N13G20    29.92S
GOVE KS          N/A     99  32   9 MISG        N/A
LENORA KS        N/A     95  32  11 MISG        N/A
NORTON KS      SUNNY     95  54  24 N12       29.83S
OBERLIN KS     FAIR      91  59  33 N9        29.87S
SHARON SPRINGS   N/A     97  57  26 NE6         N/A
ST FRANCIS KS  MOSUNNY   88  57  35 N12G18    29.96
TRIBUNE KS     SUNNY     99 N/A N/A NE9       29.95F
WAKEENEY KS      N/A     99  55  22 MISG        N/A
TRENTON NEB      N/A     86  32  14 N13         N/A
KIT CARSON CO    N/A     96  50  20 N12G23      N/A
YUMA CO          N/A     83  57  40 N9          N/A
$$


USA.gov is the U.S. government's official web portal to all federal, state and local government web resources and services.